Regional Weather Roundup
Issued by NWS Cleveland, OH

Home | Current Version | Previous Version | Text Only | Print | Product List | Glossary On
Versions: 1 2 3 4 5 6 7 8 9 10 11 12 13 14 15 16 17 18 19 20 21 22 23 24 25 26 27 28 29 30 31 32 33 34 35 36 37 38 39 40 41 42 43 44 45 46 47 48 49 50
000
ASUS41 KCLE 282312
RWRCLE
OHIO REGIONAL WEATHER ROUNDUP
NATIONAL WEATHER SERVICE WILMINGTON, OH
700 PM EDT TUE MAR 28 2017

NOTE: "FAIR" INDICATES FEW OR NO CLOUDS BELOW 12,000 FEET WITH NO
SIGNIFICANT WEATHER AND/OR OBSTRUCTIONS TO VISIBILITY.

OHZ001>008-015>018-024>027-034-035-043-044-290000-
   NORTHWEST OHIO

CITY           SKY/WX    TMP DP  RH WIND       PRES   REMARKS
DEFIANCE       CLOUDY    48  40  73 N7        30.11R
FINDLAY        CLOUDY    49  40  71 NE9       30.10R
TOLEDO EXPRESS CLOUDY    47  40  76 N12       30.12R
TOLEDO EXEC    CLOUDY    47  40  76 E6        30.13R
LIMA           CLOUDY    49  44  83 N8        30.09R
$$

OHZ009>014-019>023-028>033-038-089-290000-
   NORTHEAST OHIO

CITY           SKY/WX    TMP DP  RH WIND       PRES   REMARKS
CLE-HOPKINS    MOCLDY    44  36  73 N12       30.13R
CLE-LAKEFRONT  CLOUDY    40  37  89 NW6       30.10R
CUY CO. ARPT   CLOUDY    43  39  87 NW8       30.10R
LORAIN-ELYRIA  CLOUDY    42  36  79 N7        30.12R
ASHTABULA      CLOUDY    42  41  96 NW6       30.08R FOG
AKRON-CANTON   CLOUDY    46  40  79 N13       30.07R
WOOSTER        CLOUDY    44  40  85 N10       30.09R
MANSFIELD      CLOUDY    43  41  93 N9        30.09R
YOUNGSTOWN     CLOUDY    45  41  86 NW10      30.06R
$$

OHZ042-051>053-060>062-070>072-077>081-290000-
  SOUTHWEST OHIO

CITY           SKY/WX    TMP DP  RH WIND       PRES   REMARKS
CINC-COVINGTON CLOUDY    56  50  80 N8        30.06R
CINC-LUNKEN    CLOUDY    57  51  80 N7        30.06R
HAMILTON       CLOUDY    56  50  80 N7        30.08R
DAYTON         CLOUDY    52  46  80 N9        30.08R
WRIGHT-PAT AFB CLOUDY    54  50  87 N8        30.07R
DAYTON GENERAL CLOUDY    54  48  80 N9        30.06R
WILMINGTON     CLOUDY    54  49  83 N5        30.05R
$$

OHZ036-037-039>041-045>050-054>059-063>069-073>076-082>088-290000-
  CENTRAL AND SOUTHEAST OHIO

CITY           SKY/WX    TMP DP  RH WIND       PRES   REMARKS
COLUMBUS       CLOUDY    53  45  74 N15       30.06R
OSU AIRPORT    CLOUDY    50  45  83 N10       30.07R
BOLTON FIELD   CLOUDY    52  46  82 N10       30.06R
RICKENBACK AFB FAIR      54  46  75 N12       30.05R
NEWARK         CLOUDY    53  45  74 N9        30.05R
MARION         CLOUDY    46  41  82 NE14      30.09R
LANCASTER      CLOUDY    58  48  69 N10       30.05R
ZANESVILLE     MOCLDY    56  46  69 N8        30.04R
NEW PHILLY     CLOUDY    48  43  82 NW8       30.06R
$$



USA.gov is the U.S. government's official web portal to all federal, state and local government web resources and services.